Date String (YYYY-MM-DD hh:mm:ss) UTC,Instrument flags,Ambient pressure (hPa),Sample flow (lpm),Bypass flow (lpm),Sample temperature (°C),Ambient temperature (°C),ASC tube jacket temperature (°C),LED temperature (°C),Box temperature (°C),Sample RH (%),Span deviation,Mass concentration (μg/m³),Mass concentration (μg/m³),Mass concentration (μg/m³)
DateTimeUTC,F1_M11,P_M11,Q1_M11,Q2_M11,T1_M11,T2_M11,T3_M11,T4_M11,T5_M11,U1_M11,ZSPAN_M11,X0_M11,X2_M11,X1_M11
2022-08-08 17:00:00,,0832.3,5.00,0.00,31.7,28.6,00.0,39.8,32.3,32.9,0000.0,0008.55,0004.64,0004.25
2022-08-08 17:01:00,,0832.3,5.00,0.00,31.7,28.2,00.0,39.7,32.2,32.8,0000.0,0008.47,0004.62,0004.24
2022-08-08 17:02:00,,0832.4,5.01,0.00,31.6,27.7,00.0,39.7,32.1,33.6,0000.0,0008.42,0004.64,0004.24
2022-08-08 17:03:00,,0832.4,5.00,0.00,31.5,27.5,00.0,39.7,32.0,34.1,0000.0,0008.00,0004.66,0004.24
2022-08-08 17:04:00,,0832.3,4.99,0.00,31.4,27.5,00.0,39.7,31.9,35.2,0000.0,0008.13,0004.71,0004.25
2022-08-08 17:05:00,,0832.4,5.00,0.00,31.5,27.6,00.0,39.7,32.0,34.9,0000.0,0008.16,0004.71,0004.24
2022-08-08 17:06:00,,0832.4,5.01,0.00,31.5,27.8,00.0,39.7,32.1,34.1,0000.0,0008.31,0004.73,0004.24
2022-08-08 17:07:00,,0832.4,5.00,0.00,31.6,28.0,00.0,39.7,32.1,33.2,0000.0,0008.36,0004.72,0004.22
2022-08-08 17:08:00,,0832.3,4.99,0.00,31.6,28.1,00.0,39.7,32.1,33.2,0000.0,0008.20,0004.68,0004.19
2022-08-08 17:09:00,,0832.3,5.01,0.00,31.6,28.3,00.0,39.7,32.2,33.5,0000.0,0007.84,0004.67,0004.18
2022-08-08 17:10:00,,0832.3,5.00,0.00,31.5,28.4,00.0,39.7,32.2,33.8,0000.0,0007.91,0004.66,0004.16
2022-08-08 17:11:00,,0832.3,5.00,0.00,31.5,28.6,00.0,39.7,32.2,33.3,0000.0,0007.91,0004.66,0004.16
2022-08-08 17:12:00,,0832.3,5.01,0.00,31.5,28.6,00.0,39.8,32.2,34.3,0000.0,0007.97,0004.68,0004.19
2022-08-08 17:13:00,,0832.3,4.99,0.00,31.5,28.2,00.0,39.7,32.1,34.5,0000.0,0008.11,0004.75,0004.24
2022-08-08 17:14:00,,0832.4,5.00,0.00,31.4,27.7,00.0,39.7,32.0,34.6,0000.0,0008.16,0004.80,0004.31
2022-08-08 17:15:00,,0832.3,5.00,0.00,31.3,27.5,00.0,39.7,32.0,35.2,0000.0,0008.21,0004.80,0004.35
2022-08-08 17:16:00,,0832.3,5.01,0.00,31.3,27.6,00.0,39.6,32.0,35.5,0000.0,0008.68,0004.83,0004.37
2022-08-08 17:17:00,,0832.3,4.99,0.00,31.3,27.7,00.0,39.6,32.1,34.3,0000.2,0008.78,0004.85,0004.40
2022-08-08 17:18:00,,0832.3,5.00,0.00,31.4,27.9,00.0,39.6,32.1,34.0,0000.4,0009.12,0004.93,0004.46
2022-08-08 17:19:00,,0832.3,5.01,0.00,31.4,28.0,00.0,39.6,32.1,34.1,0000.4,0009.22,0005.00,0004.52
2022-08-08 17:20:00,,0832.3,5.00,0.00,31.4,28.2,00.0,39.6,32.1,33.8,0000.5,0009.33,0005.06,0004.57
2022-08-08 17:21:00,,0832.3,5.01,0.00,31.4,28.3,00.0,39.6,32.1,33.8,0001.0,0009.37,0005.11,0004.62
2022-08-08 17:22:00,,0832.3,4.99,0.00,31.4,28.5,00.0,39.6,32.2,35.3,0001.2,0010.02,0005.26,0004.72
2022-08-08 17:23:00,,0832.3,4.98,0.00,31.5,28.6,00.0,39.6,32.3,34.7,0001.4,0010.17,0005.41,0004.86
2022-08-08 17:24:00,,0832.3,5.02,0.00,31.6,28.3,00.0,39.6,32.2,34.5,0001.5,0010.16,0005.48,0004.92
2022-08-08 17:25:00,,0832.2,4.99,0.00,31.7,27.7,00.0,39.6,32.1,35.0,0002.4,0010.18,0005.57,0005.03
2022-08-08 17:26:00,,0832.2,4.98,0.00,31.7,27.1,00.0,39.6,30.6,35.4,0002.5,0010.34,0005.72,0005.15
2022-08-08 17:27:00,,0832.2,5.01,0.00,31.9,27.5,00.0,39.6,32.1,35.4,0002.2,0010.02,0005.88,0005.28
2022-08-08 17:28:00,,0832.2,5.00,0.00,32.1,27.6,00.0,39.6,32.3,34.9,0001.5,0010.11,0006.03,0005.42
2022-08-08 17:29:00,,0832.2,4.98,0.00,32.3,27.8,00.0,39.7,32.3,34.5,0001.5,0009.76,0006.08,0005.52
2022-08-08 17:30:00,,0832.1,5.01,0.00,32.3,28.0,00.0,39.7,32.3,34.3,0001.8,0009.88,0006.17,0005.60
2022-08-08 17:31:00,,0832.1,4.99,0.00,32.3,28.2,00.0,39.8,32.3,33.7,0001.7,0009.96,0006.26,0005.67
2022-08-08 17:32:00,,0832.1,4.99,0.00,32.3,28.3,00.0,39.9,32.3,34.0,0001.2,0009.95,0006.32,0005.75
2022-08-08 17:33:00,,0832.1,5.02,0.00,32.3,28.5,00.0,39.9,32.4,34.3,0001.1,0009.77,0006.31,0005.78
2022-08-08 17:34:00,,0832.1,5.00,0.00,32.3,28.5,00.0,40.0,32.4,33.0,0001.0,0009.70,0006.27,0005.75
2022-08-08 17:35:00,,0832.1,5.00,0.00,32.2,28.1,00.0,40.0,32.3,33.5,0000.7,0009.72,0006.28,0005.78
2022-08-08 17:36:00,,0832.1,4.98,0.00,32.1,27.6,00.0,40.0,32.1,34.4,-000.0,0009.72,0006.26,0005.77
2022-08-08 17:37:00,,0832.1,5.02,0.00,32.1,27.5,00.0,40.0,32.1,35.3,-000.7,0009.70,0006.21,0005.73
2022-08-08 17:38:00,,0832.1,4.99,0.00,32.0,27.6,00.0,40.0,32.1,34.3,-000.8,0009.62,0006.16,0005.71
2022-08-08 17:39:00,,0832.1,5.00,0.00,32.0,27.7,00.0,40.0,32.2,34.5,-000.6,0009.47,0006.07,0005.65
2022-08-08 17:40:00,,0832.1,4.99,0.00,32.0,27.9,00.0,40.0,32.2,35.1,-000.4,0009.44,0006.04,0005.60
2022-08-08 17:41:00,,0832.1,4.99,0.00,32.1,28.1,00.0,40.0,32.3,34.6,-000.9,0009.43,0006.04,0005.60
2022-08-08 17:42:00,,0832.1,4.99,0.00,32.2,28.3,00.0,40.0,32.4,33.6,-000.8,0009.47,0006.01,0005.60
2022-08-08 17:43:00,,0832.1,5.01,0.00,32.3,28.4,00.0,40.0,32.4,33.5,-000.3,0009.79,0005.94,0005.52
2022-08-08 17:44:00,,0832.1,5.00,0.00,32.3,28.6,00.0,40.1,32.5,34.2,-000.4,0009.88,0005.90,0005.45
2022-08-08 17:45:00,,0832.1,5.00,0.00,32.3,28.5,00.0,40.1,32.4,33.5,-000.7,0010.18,0005.90,0005.45
2022-08-08 17:46:00,,0832.1,5.01,0.00,32.2,27.9,00.0,40.1,32.2,33.7,-000.5,0010.71,0005.85,0005.40
2022-08-08 17:47:00,,0832.0,5.00,0.00,32.1,27.5,00.0,40.0,32.1,34.0,-000.3,0010.80,0005.81,0005.35
2022-08-08 17:48:00,,0831.9,5.00,0.00,32.0,27.5,00.0,40.0,32.1,34.2,0000.3,0010.90,0005.79,0005.32
2022-08-08 17:49:00,,0832.0,5.00,0.00,31.8,27.6,00.0,40.0,32.1,34.0,0000.7,0010.98,0005.75,0005.27
2022-08-08 17:50:00,,0832.0,4.99,0.00,31.7,27.8,00.0,40.0,32.1,34.4,0000.5,0011.39,0005.77,0005.25
2022-08-08 17:51:00,,0832.0,5.01,0.00,31.6,28.0,00.0,40.0,32.1,34.2,0000.5,0011.79,0005.77,0005.21
2022-08-08 17:52:00,,0832.0,4.99,0.00,31.6,28.1,00.0,40.0,32.1,34.2,0000.7,0012.37,0005.69,0005.12
2022-08-08 17:53:00,,0832.0,4.99,0.00,31.5,28.3,00.0,40.0,32.2,34.1,0000.4,0012.51,0005.63,0005.03
2022-08-08 17:54:00,,0832.0,5.00,0.00,31.5,28.4,00.0,39.9,32.2,34.4,0000.0,0012.68,0005.61,0005.02
2022-08-08 17:55:00,,0832.0,5.01,0.00,31.5,28.6,00.0,39.9,32.3,34.6,0000.1,0012.66,0005.54,0005.00
2022-08-08 17:56:00,,0832.0,4.99,0.00,31.5,28.3,00.0,39.9,32.2,33.8,-000.0,0012.24,0005.42,0004.92
2022-08-08 17:57:00,,0832.0,5.00,0.00,31.4,27.7,00.0,39.8,32.1,33.5,-000.4,0011.46,0005.34,0004.83
2022-08-08 17:58:00,,0832.0,4.99,0.00,31.4,27.5,00.0,39.8,32.0,32.8,-000.2,0011.43,0005.23,0004.74
2022-08-08 17:59:00,,0832.0,5.01,0.00,31.2,27.5,00.0,39.7,31.9,33.5,-000.5,0011.32,0005.10,0004.62
